Forestdale, MA

2:43 AM EDT on August 29, 2016 (GMT -0400)
Cape Cod Coast Guard Air Station

Weather History for KFMH - April, 2013

Change the Weather History Date:

Thursday, April 4, 2013

  Actual Average Record
Temperature  
Mean Temperature 36 °F -  
Max Temperature 46 °F 47 °F 62 °F (2012)
Min Temperature 26 °F 32 °F 23 °F (2016)
Degree Days  
Heating Degree Days 29    
Moisture  
Dew Point 20 °F    
Average Humidity 51    
Maximum Humidity 81    
Minimum Humidity 23    
Precipitation  
Precipitation 0.00 in - - ()
Sea Level Pressure  
Sea Level Pressure 30.21 in    
Wind  
Wind Speed 12 mph (West)    
Max Wind Speed 21 mph    
Max Gust Speed 25 mph    
Visibility 10 miles    
Events      
Averages and records for this station are not official NWS values.
T = Trace of Precipitation, MM = Missing Value Source: NWS Daily Summary

Daily Weather History Graph

Daily Weather History Graph

Search for Another Location

Airport or City:

Trip Planner

Search our weather history database for the weather conditions in past years. The results will help you decide how hot, cold, wet, or windy it might be!

Date:

Astronomy

Apr. 04, 2013 Rise Set
Actual Time 6:19 AM EDT 7:10 PM EDT
Civil Twilight 5:51 AM EDT 7:39 PM EDT
Nautical Twilight 5:18 AM EDT 8:12 PM EDT
Astronomical Twilight 4:43 AM EDT 8:47 PM EDT
Moon 2:48 AM EDT (4/4) 1:21 PM EDT (4/4)
Length of Visible Light 13h 47m
Length of Day
12h 51m
Waning Crescent, 34% of the Moon is Illuminated
Apr 4
Waning Crescent
Apr 10
New
Apr 18
First Quarter
Apr 25
Full
May 2
Last Quarter

Hourly Weather History & Observations

Time (EDT) Temp. Windchill Dew Point Humidity Pressure Visibility Wind Dir Wind Speed Gust Speed Precip Events Conditions
12:15 AM 32.0 °F 22.1 °F 14.0 °F 48% 30.17 in 10.0 mi WNW 13.8 mph 18.4 mph N/A   Clear
12:35 AM 32.0 °F 21.6 °F 14.0 °F 48% 30.18 in 10.0 mi WNW 15.0 mph 20.7 mph N/A   Clear
12:55 AM 32.0 °F 23.6 °F 14.0 °F 48% 30.19 in 10.0 mi West 10.4 mph - N/A   Clear
1:15 AM 32.0 °F 23.0 °F 14.0 °F 48% 30.19 in 10.0 mi WNW 11.5 mph 18.4 mph N/A   Clear
1:35 AM 32.0 °F 24.8 °F 14.0 °F 48% 30.18 in 10.0 mi NW 8.1 mph - N/A   Clear
1:55 AM 32.0 °F 23.6 °F 14.0 °F 48% 30.18 in 10.0 mi NW 10.4 mph 18.4 mph N/A   Clear
2:15 AM 32.0 °F 23.0 °F 14.0 °F 48% 30.18 in 10.0 mi NW 11.5 mph - N/A   Clear
2:35 AM 32.0 °F 23.6 °F 14.0 °F 48% 30.19 in 10.0 mi WNW 10.4 mph 17.3 mph N/A   Clear
2:55 AM 32.0 °F 24.8 °F 14.0 °F 48% 30.18 in 10.0 mi NW 8.1 mph 16.1 mph N/A   Clear
3:15 AM 32.0 °F 23.0 °F 14.0 °F 48% 30.18 in 10.0 mi NW 11.5 mph 19.6 mph N/A   Clear
3:35 AM 32.0 °F 24.8 °F 14.0 °F 48% 30.18 in 10.0 mi NW 8.1 mph - N/A   Clear
3:55 AM 30.2 °F 22.6 °F 14.0 °F 51% 30.18 in 10.0 mi NW 8.1 mph - N/A   Clear
4:35 AM 30.2 °F 23.4 °F 14.0 °F 51% 30.19 in 10.0 mi NNW 6.9 mph - N/A   Clear
4:55 AM 30.2 °F 24.3 °F 14.0 °F 51% 30.19 in 10.0 mi NNW 5.8 mph - N/A   Clear
5:15 AM 28.4 °F 20.4 °F 14.0 °F 55% 30.21 in 10.0 mi NNW 8.1 mph - N/A   Clear
5:35 AM 28.4 °F 22.2 °F 14.0 °F 55% 30.23 in 10.0 mi NW 5.8 mph - N/A   Clear
5:55 AM 26.6 °F 19.1 °F 14.0 °F 59% 30.24 in 10.0 mi WNW 6.9 mph - N/A   Clear
6:15 AM 26.6 °F 20.0 °F 15.8 °F 64% 30.25 in 10.0 mi WNW 5.8 mph - N/A   Clear
6:35 AM 26.6 °F 17.5 °F 15.8 °F 64% 30.27 in 10.0 mi West 9.2 mph - N/A   Clear
6:55 AM 30.2 °F 21.9 °F 17.6 °F 60% 30.29 in 10.0 mi West 9.2 mph - N/A   Clear
7:15 AM 32.0 °F 22.5 °F 17.6 °F 55% 30.29 in 10.0 mi WNW 12.7 mph - N/A   Clear
7:35 AM 32.0 °F 23.0 °F 15.8 °F 51% 30.29 in 10.0 mi WNW 11.5 mph - N/A   Clear
7:55 AM 32.0 °F 23.6 °F 15.8 °F 51% 30.30 in 10.0 mi WNW 10.4 mph 18.4 mph N/A   Clear
8:15 AM 33.8 °F 25.3 °F 15.8 °F 48% 30.30 in 10.0 mi WNW 11.5 mph 19.6 mph N/A   Clear
8:35 AM 35.6 °F 26.6 °F 17.6 °F 48% 30.31 in 10.0 mi West 13.8 mph - N/A   Clear
8:55 AM 35.6 °F 28.0 °F 17.6 °F 48% 30.31 in 10.0 mi West 10.4 mph - N/A   Clear
9:15 AM 37.4 °F 30.8 °F 15.8 °F 41% 30.31 in 10.0 mi WNW 9.2 mph 16.1 mph N/A   Clear
9:35 AM 39.2 °F 31.2 °F 14.0 °F 36% 30.31 in 10.0 mi West 13.8 mph - N/A   Clear
9:55 AM 39.2 °F 31.2 °F 14.0 °F 36% 30.31 in 10.0 mi WNW 13.8 mph - N/A   Clear
10:15 AM 39.2 °F 32.5 °F 14.0 °F 36% 30.30 in 10.0 mi WNW 10.4 mph - N/A   Clear
10:35 AM 41.0 °F 33.5 °F 14.0 °F 33% 30.29 in 10.0 mi West 13.8 mph 19.6 mph N/A   Clear
10:55 AM 41.0 °F 35.2 °F 14.0 °F 33% 30.28 in 10.0 mi WSW 9.2 mph - N/A   Clear
11:15 AM 41.0 °F 35.2 °F 14.0 °F 33% 30.27 in 10.0 mi WNW 9.2 mph - N/A   Clear
11:35 AM 42.8 °F 37.0 °F 14.0 °F 31% 30.27 in 10.0 mi West 10.4 mph 18.4 mph N/A   Clear
11:55 AM 42.8 °F 37.0 °F 15.8 °F 34% 30.27 in 10.0 mi WSW 10.4 mph - N/A   Clear
12:15 PM 41.0 °F 38.0 °F 15.8 °F 36% 30.26 in 10.0 mi SW 4.6 mph - N/A   Clear
12:35 PM 44.6 °F 38.8 °F 17.6 °F 34% 30.26 in 10.0 mi WSW 11.5 mph 18.4 mph N/A   Clear
12:55 PM 42.8 °F 36.6 °F 17.6 °F 36% 30.25 in 10.0 mi WSW 11.5 mph 17.3 mph N/A   Clear
1:15 PM 46.4 °F 39.8 °F 15.8 °F 29% 30.25 in 10.0 mi WSW 16.1 mph 20.7 mph N/A   Clear
1:35 PM 44.6 °F 36.9 °F 19.4 °F 37% 30.24 in 10.0 mi SW 18.4 mph 25.3 mph N/A   Clear
1:55 PM 44.6 °F 36.9 °F 19.4 °F 37% 30.24 in 10.0 mi WSW 18.4 mph 24.2 mph N/A   Clear
2:15 PM 44.6 °F 37.2 °F 21.2 °F 39% 30.23 in 10.0 mi WSW 17.3 mph 21.9 mph N/A   Clear
2:35 PM 44.6 °F 36.9 °F 19.4 °F 37% 30.22 in 10.0 mi WSW 18.4 mph 21.9 mph N/A   Clear
2:55 PM 44.6 °F 36.6 °F 21.2 °F 39% 30.21 in 10.0 mi WSW 19.6 mph - N/A   Clear
3:15 PM 44.6 °F 36.9 °F 19.4 °F 37% 30.20 in 10.0 mi SW 18.4 mph 24.2 mph N/A   Partly Cloudy
3:35 PM 44.6 °F 36.4 °F 21.2 °F 39% 30.19 in 10.0 mi SW 20.7 mph - N/A   Clear
3:55 PM 44.6 °F 37.8 °F 24.8 °F 46% 30.19 in 10.0 mi SW 15.0 mph 24.2 mph N/A   Clear
4:15 PM 44.6 °F 36.9 °F 24.8 °F 46% 30.18 in 10.0 mi WSW 18.4 mph - N/A   Clear
4:35 PM 44.6 °F 37.8 °F 24.8 °F 46% 30.18 in 10.0 mi WSW 15.0 mph 21.9 mph N/A   Clear
4:55 PM 42.8 °F 34.5 °F 24.8 °F 49% 30.17 in 10.0 mi WSW 18.4 mph 25.3 mph N/A   Clear
5:15 PM 42.8 °F 34.8 °F 24.8 °F 49% 30.17 in 10.0 mi SW 17.3 mph 24.2 mph N/A   Clear
5:35 PM 41.0 °F 31.6 °F 26.6 °F 57% 30.16 in 10.0 mi SW 20.7 mph 25.3 mph N/A   Clear
5:55 PM 41.0 °F 32.2 °F 26.6 °F 57% 30.16 in 10.0 mi SW 18.4 mph 21.9 mph N/A   Clear
6:15 PM 39.2 °F 30.8 °F 26.6 °F 61% 30.16 in 10.0 mi SW 15.0 mph - N/A   Clear
6:35 PM 39.2 °F 30.8 °F 24.8 °F 56% 30.15 in 10.0 mi WSW 15.0 mph 19.6 mph N/A   Clear
7:15 PM 37.4 °F 28.5 °F 24.8 °F 60% 30.16 in 10.0 mi WSW 15.0 mph 23.0 mph N/A   Clear
7:35 PM 37.4 °F 28.5 °F 24.8 °F 60% 30.16 in 10.0 mi SW 15.0 mph - N/A   Mostly Cloudy
7:55 PM 37.4 °F 27.8 °F 26.6 °F 65% 30.17 in 10.0 mi SW 17.3 mph - N/A   Overcast
8:15 PM 37.4 °F 28.2 °F 28.4 °F 70% 30.17 in 10.0 mi SW 16.1 mph 25.3 mph N/A   Overcast
8:35 PM 37.4 °F 27.8 °F 28.4 °F 70% 30.18 in 10.0 mi SW 17.3 mph 23.0 mph N/A   Overcast
8:55 PM 37.4 °F 27.2 °F 30.2 °F 75% 30.18 in 10.0 mi WSW 19.6 mph 24.2 mph N/A   Mostly Cloudy
9:15 PM 37.4 °F 28.2 °F 32.0 °F 81% 30.17 in 10.0 mi SW 16.1 mph 19.6 mph N/A   Mostly Cloudy
9:35 PM 37.4 °F 28.2 °F 32.0 °F 81% 30.17 in 10.0 mi SW 16.1 mph 21.9 mph N/A   Mostly Cloudy
9:55 PM 37.4 °F 28.5 °F 32.0 °F 81% 30.15 in 10.0 mi SW 15.0 mph 20.7 mph N/A   Mostly Cloudy
10:15 PM 37.4 °F 29.8 °F 32.0 °F 81% 30.14 in 10.0 mi SW 11.5 mph - N/A   Overcast
10:35 PM 37.4 °F 28.5 °F 32.0 °F 81% 30.14 in 10.0 mi SW 15.0 mph 18.4 mph N/A   Overcast
10:55 PM 37.4 °F 28.5 °F 32.0 °F 81% 30.14 in 10.0 mi SW 15.0 mph 20.7 mph N/A   Overcast
11:15 PM 37.4 °F 27.8 °F 32.0 °F 81% 30.13 in 10.0 mi SW 17.3 mph 21.9 mph N/A   Overcast
11:35 PM 37.4 °F 29.8 °F 32.0 °F 81% 30.12 in 10.0 mi SW 11.5 mph 20.7 mph N/A   Overcast
11:55 PM 37.4 °F 28.5 °F 32.0 °F 81% 30.11 in 10.0 mi SW 15.0 mph - N/A   Overcast